Tracking 25648 objects as of 17-May-2022
HD Live streaming from Space Station
objects crossing your sky now

FLOCK 3P 75

Track FLOCK 3P 75 now!
10-day predictions
FLOCK 3P 75 is classified as:


NORAD ID: 41979
Int'l Code: 2017-008AH
Perigee: 447.2 km
Apogee: 452.1 km
Inclination: 97.3 °
Period: 93.4 minutes
Semi major axis: 6820 km
RCS: Unknown
Launch date: February 15, 2017
Source: United States (US)
Launch site: SRIHARIKOTA (SRI)
aabbcc
Your satellite tracking list
Your tracking list is empty




NASA's NSSDC Master Catalog

Two Line Element Set (TLE):
1 41979U 17008AH  22136.45119898  .00045952  00000-0  11030-2 0  9997
2 41979  97.2859 206.5656 0003638 325.6259  34.4752 15.41221172292334
Source of the keplerian elements: AFSPC